Newcastle, WY

6:41 AM MST on December 10, 2019 (GMT -0700)
Mondell

Weather History for KECS - October, 2019

Change the Weather History Date:

Friday, October 18, 2019

  Actual Average (KCUT) Record (KCUT)
Temperature  
Mean Temperature 44 °F -  
Max Temperature 55 °F 55 °F 77 °F (1955)
Min Temperature 28 °F 27 °F 13 °F (1968)
Degree Days  
Heating Degree Days 22    
Moisture  
Dew Point 29 °F    
Average Humidity 56    
Maximum Humidity 93    
Minimum Humidity 25    
Precipitation  
Precipitation 0.00 in - - ()
Sea Level Pressure  
Sea Level Pressure 29.67 in    
Wind  
Wind Speed 12 mph (NNW)    
Max Wind Speed 29 mph    
Max Gust Speed 39 mph    
Visibility 10 miles    
Events      
Averages and records for this station are not official NWS values.
T = Trace of Precipitation, MM = Missing Value Source: NWS Daily Summary

Daily Weather History Graph

Daily Weather History Graph

Search for Another Location

Airport or City:

Astronomy

Oct. 18, 2019 Rise Set
Actual Time 7:15 AM MDT 6:08 PM MDT
Civil Twilight 6:46 AM MDT 6:38 PM MDT
Nautical Twilight 6:12 AM MDT 7:11 PM MDT
Astronomical Twilight 5:39 AM MDT 7:44 PM MDT
Moon 9:19 PM MDT (10/18) 11:58 AM MDT (10/18)
Length of Visible Light 11h 51m
Length of Day
10h 53m
Waning Gibbous, 78% of the Moon is Illuminated
Oct 18
Waning Gibbous
Oct 21
Last Quarter
Oct 27
New
Nov 4
First Quarter
Nov 12
Full

Hourly Weather History & Observations

Time (MDT) Temp. Windchill Dew Point Humidity Pressure Visibility Wind Dir Wind Speed Gust Speed Precip Events Conditions
12:15 AM 55.4 °F - 19.4 °F 25% 29.52 in 10.0 mi ESE 6.9 mph - N/A   Clear
12:35 AM 55.4 °F - 19.4 °F 25% 29.51 in 10.0 mi SE 8.1 mph - N/A   Clear
12:55 AM 51.8 °F - 23.0 °F 33% 29.52 in 10.0 mi SE 4.6 mph - N/A   Clear
1:15 AM 53.6 °F - 19.4 °F 26% 29.52 in 10.0 mi SSE 4.6 mph - N/A   Clear
1:35 AM 50.0 °F - 21.2 °F 32% 29.51 in 10.0 mi Calm Calm - N/A   Clear
1:55 AM 48.2 °F - 21.2 °F 34% 29.51 in 10.0 mi ESE 11.5 mph 16.1 mph N/A   Clear
2:15 AM 44.6 °F 41.4 °F 24.8 °F 46% 29.52 in 10.0 mi NNW 5.8 mph - N/A   Clear
2:35 AM 44.6 °F 41.4 °F 23.0 °F 43% 29.52 in 10.0 mi NNE 5.8 mph - N/A   Clear
2:55 AM 42.8 °F 38.0 °F 24.8 °F 49% 29.52 in 10.0 mi NW 8.1 mph - N/A   Clear
3:15 AM 42.8 °F 37.0 °F 24.8 °F 49% 29.53 in 10.0 mi North 10.4 mph - N/A   Clear
3:35 AM 42.8 °F 37.0 °F 24.8 °F 49% 29.52 in 10.0 mi North 10.4 mph - N/A   Clear
3:55 AM 42.8 °F 36.6 °F 24.8 °F 49% 29.53 in 10.0 mi WNW 11.5 mph - N/A   Clear
4:15 AM 44.6 °F 38.8 °F 26.6 °F 49% 29.53 in 10.0 mi North 11.5 mph - N/A   Clear
4:35 AM 50.0 °F - 28.4 °F 43% 29.52 in 10.0 mi NW 12.7 mph 23.0 mph N/A   Clear
4:55 AM 50.0 °F - 28.4 °F 43% 29.53 in 10.0 mi NNW 19.6 mph 25.3 mph N/A   Clear
5:15 AM 50.0 °F - 28.4 °F 43% 29.52 in 10.0 mi NNW 19.6 mph 25.3 mph N/A   Clear
5:35 AM 48.2 °F - 28.4 °F 46% 29.53 in 10.0 mi NNW 23.0 mph 29.9 mph N/A   Clear
5:55 AM 48.2 °F - 28.4 °F 46% 29.53 in 10.0 mi NNW 24.2 mph 32.2 mph N/A   Clear
6:15 AM 48.2 °F - 28.4 °F 46% 29.54 in 10.0 mi NNW 28.8 mph 36.8 mph N/A   Clear
6:35 AM 46.4 °F 38.5 °F 30.2 °F 53% 29.55 in 10.0 mi NNW 21.9 mph 34.5 mph N/A   Clear
6:55 AM 46.4 °F 38.1 °F 30.2 °F 53% 29.56 in 10.0 mi NNW 24.2 mph 33.4 mph N/A   Clear
7:15 AM 46.4 °F 37.9 °F 32.0 °F 57% 29.57 in 10.0 mi NNW 25.3 mph 32.2 mph N/A   Clear
7:35 AM 46.4 °F 37.7 °F 32.0 °F 57% 29.57 in 10.0 mi NNW 26.5 mph 39.1 mph N/A   Mostly Cloudy
7:55 AM 44.6 °F 36.4 °F 32.0 °F 61% 29.60 in 10.0 mi NNW 20.7 mph 29.9 mph N/A   Overcast
8:35 AM 44.6 °F 36.6 °F 32.0 °F 61% 29.64 in 10.0 mi NW 19.6 mph 26.5 mph N/A   Overcast
8:55 AM 44.6 °F 38.1 °F 32.0 °F 61% 29.65 in 10.0 mi NW 13.8 mph 24.2 mph N/A   Overcast
9:15 AM 44.6 °F 36.4 °F 32.0 °F 61% 29.67 in 10.0 mi NW 20.7 mph 27.6 mph N/A   Overcast
9:35 AM 44.6 °F 36.6 °F 32.0 °F 61% 29.67 in 10.0 mi NNW 19.6 mph 26.5 mph N/A   Overcast
9:55 AM 44.6 °F 36.9 °F 32.0 °F 61% 29.69 in 10.0 mi NNW 18.4 mph 23.0 mph N/A   Overcast
10:20 AM 44.6 °F 35.9 °F 32.0 °F 61% 29.69 in 10.0 mi NNW 23.0 mph 28.8 mph N/A   Overcast
10:35 AM 44.6 °F 36.4 °F 33.8 °F 66% 29.69 in 10.0 mi NW 20.7 mph 28.8 mph N/A   Overcast
10:55 AM 44.6 °F 37.2 °F 33.8 °F 66% 29.70 in 10.0 mi NW 17.3 mph 27.6 mph N/A   Light Drizzle
11:15 AM 42.8 °F 34.5 °F 33.8 °F 70% 29.71 in 10.0 mi NW 18.4 mph 23.0 mph N/A   Light Drizzle
11:35 AM 42.8 °F 34.5 °F 33.8 °F 70% 29.72 in 10.0 mi NW 18.4 mph 27.6 mph N/A   Light Drizzle
11:55 AM 42.8 °F 34.8 °F 33.8 °F 70% 29.72 in 10.0 mi NW 17.3 mph 21.9 mph N/A   Overcast
12:15 PM 42.8 °F 36.2 °F 35.6 °F 76% 29.72 in 10.0 mi NNW 12.7 mph 21.9 mph N/A   Light Drizzle
12:35 PM 44.6 °F 38.8 °F 33.8 °F 66% 29.72 in 10.0 mi NW 11.5 mph 19.6 mph N/A   Light Drizzle
12:55 PM 42.8 °F 37.0 °F 33.8 °F 70% 29.72 in 10.0 mi NW 10.4 mph - N/A   Overcast
1:15 PM 44.6 °F 38.8 °F 33.8 °F 66% 29.72 in 10.0 mi NW 11.5 mph - N/A   Overcast
1:35 PM 44.6 °F 39.2 °F 33.8 °F 66% 29.72 in 10.0 mi WNW 10.4 mph 21.9 mph N/A   Overcast
1:55 PM 44.6 °F 38.8 °F 32.0 °F 61% 29.72 in 10.0 mi NW 11.5 mph 24.2 mph N/A   Overcast
2:15 PM 46.4 °F 41.1 °F 30.2 °F 53% 29.73 in 10.0 mi NW 11.5 mph - N/A   Overcast
2:35 PM 48.2 °F - 30.2 °F 50% 29.72 in 10.0 mi WNW 10.4 mph 20.7 mph N/A   Overcast
2:55 PM 50.0 °F - 28.4 °F 43% 29.72 in 10.0 mi WNW 12.7 mph 21.9 mph N/A   Scattered Clouds
3:15 PM 46.4 °F 40.1 °F 28.4 °F 50% 29.73 in 10.0 mi NNW 15.0 mph 23.0 mph N/A   Scattered Clouds
3:35 PM 46.4 °F 41.1 °F 28.4 °F 50% 29.74 in 10.0 mi NW 11.5 mph 17.3 mph N/A   Mostly Cloudy
3:55 PM 50.0 °F - 28.4 °F 43% 29.74 in 10.0 mi WNW 15.0 mph 20.7 mph N/A   Mostly Cloudy
4:15 PM 50.0 °F - 28.4 °F 43% 29.74 in 10.0 mi WNW 10.4 mph 23.0 mph N/A   Scattered Clouds
4:35 PM 50.0 °F - 28.4 °F 43% 29.74 in 10.0 mi WNW 13.8 mph 19.6 mph N/A   Clear
4:55 PM 51.8 °F - 28.4 °F 41% 29.74 in 10.0 mi NNW 11.5 mph 17.3 mph N/A   Clear
5:15 PM 51.8 °F - 26.6 °F 38% 29.74 in 10.0 mi West 8.1 mph 16.1 mph N/A   Clear
5:35 PM 50.0 °F - 28.4 °F 43% 29.74 in 10.0 mi WNW 8.1 mph - N/A   Scattered Clouds
5:55 PM 48.2 °F - 28.4 °F 46% 29.75 in 10.0 mi WNW 8.1 mph - N/A   Scattered Clouds
6:15 PM 44.6 °F 40.7 °F 28.4 °F 53% 29.76 in 10.0 mi WNW 6.9 mph - N/A   Clear
6:35 PM 42.8 °F 39.3 °F 28.4 °F 57% 29.76 in 10.0 mi NNW 5.8 mph - N/A   Clear
6:55 PM 41.0 °F 36.4 °F 28.4 °F 61% 29.77 in 10.0 mi NW 6.9 mph - N/A   Clear
7:15 PM 41.0 °F 35.2 °F 28.4 °F 61% 29.77 in 10.0 mi North 9.2 mph - N/A   Clear
7:35 PM 41.0 °F 36.4 °F 28.4 °F 61% 29.78 in 10.0 mi North 6.9 mph - N/A   Clear
7:55 PM 39.2 °F 33.0 °F 28.4 °F 65% 29.78 in 10.0 mi North 9.2 mph - N/A   Clear
8:15 PM 37.4 °F 30.8 °F 28.4 °F 70% 29.78 in 10.0 mi North 9.2 mph - N/A   Clear
8:35 PM 37.4 °F 30.8 °F 28.4 °F 70% 29.79 in 10.0 mi North 9.2 mph - N/A   Clear
8:55 PM 37.4 °F 31.4 °F 28.4 °F 70% 29.80 in 10.0 mi North 8.1 mph - N/A   Clear
9:15 PM 37.4 °F 30.8 °F 28.4 °F 70% 29.80 in 10.0 mi North 9.2 mph - N/A   Clear
9:35 PM 37.4 °F 30.8 °F 28.4 °F 70% 29.80 in 10.0 mi North 9.2 mph - N/A   Clear
9:55 PM 35.6 °F 29.2 °F 28.4 °F 75% 29.80 in 10.0 mi North 8.1 mph - N/A   Clear
10:15 PM 33.8 °F - 28.4 °F 81% 29.80 in 10.0 mi Calm Calm - N/A   Clear
10:35 PM 33.8 °F 28.6 °F 28.4 °F 81% 29.81 in 10.0 mi North 5.8 mph - N/A   Clear
10:55 PM 32.0 °F - 26.6 °F 80% 29.82 in 10.0 mi Calm Calm - N/A   Clear
11:15 PM 32.0 °F 24.2 °F 26.6 °F 80% 29.82 in 10.0 mi SE 9.2 mph - N/A   Clear
11:35 PM 32.0 °F 24.8 °F 28.4 °F 87% 29.83 in 10.0 mi ESE 8.1 mph - N/A   Clear
11:55 PM 28.4 °F - 26.6 °F 93% 29.84 in 10.0 mi Calm Calm - N/A   Scattered Clouds